Regional Weather Roundup
Issued by NWS

Home | Current Version | Previous Version | Text Only | Print | Product List | Glossary Off
Versions: 1 2 3 4 5 6 7 8 9 10 11 12 13 14 15 16 17 18 19 20 21 22 23 24 25 26 27

000
ASUS45 KTFX 210010
RWRMT
MONTANA REGIONAL WEATHER ROUNDUP
NATIONAL WEATHER SERVICE GREAT FALLS MT
500 PM MST MON FEB 20 2017

NOTE: "FAIR" INDICATES FEW OR NO CLOUDS BELOW 12000 FEET WITH NO
SIGNIFICANT WEATHER AND/OR OBSTRUCTIONS TO VISIBILITY.

MTZ001>007-043-210100-
WEST OF THE DIVIDE

CITY           SKY/WX    TMP DP  RH WIND       PRES   REMARKS
KALISPELL      CLOUDY    36  34  92 S7        29.58S WCI  30
MISSOULA       CLOUDY    36  35  96 CALM      29.62F
BUTTE          CLOUDY    41  30  65 S9        29.69R
MULLAN PASS    SNOW      31  31 100 SW13G29   29.53R VSB 1/2 WCI  21
ANACONDA         N/A     43  32  65 S17G23    29.66R
DEER LODGE       N/A     46  30  53 S12       29.65R
EUREKA           N/A     36  34  93 CALM      29.54F
HAMILTON         N/A     48  36  61 S8        29.62R
LIBBY            N/A     34  34 100 CALM      29.54R
PLAINS           N/A     35  31  86 MISG      29.64
$$

MTZ008-052>055-210100-
SOUTHWEST MONTANA

CITY           SKY/WX    TMP DP  RH WIND       PRES   REMARKS
BOZEMAN        CLOUDY    48  30  49 W16       29.68R
DILLON         CLOUDY    43  31  62 SW17      29.72R
W YELLOWSTONE  LGT SNOW  32  32 100 SW12G18   29.83R VSB 1   WCI  23
ENNIS          CLOUDY    45  30  57 S25G35    29.79R
$$

MTZ009-010-012-014-046-048-049-054-210100-
EAST SLOPES AND CENTRAL MONTANA

CITY           SKY/WX    TMP DP  RH WIND       PRES   REMARKS
CUT BANK       MOCLDY    45  29  53 W16       29.53R
GREAT FALLS    CLOUDY    46  33  60 W22G31    29.58R
MALMSTROM AFB  LGT RAIN  46  36  66 SW17      29.59R
HELENA         PTCLDY    51  32  48 SW12G18   29.60R
AUGUSTA        MOCLDY    39  35  84 SW16G28   29.56S WCI  31
BOWMANS CRNR     N/A     40  34  80 W6        29.58R
CHOTEAU          N/A     45  36  70 SW15G22   29.58R
CONRAD           N/A     50  41  71 S9        29.60S
ULM            MOCLDY    46  34  62 MISG      29.60R
$$

MTZ011-013-016-021-045-047-050-051-210100-
NORTH CENTRAL MONTANA

CITY           SKY/WX    TMP DP  RH WIND       PRES   REMARKS
HAVRE          CLOUDY    48  27  44 CALM      29.57R
LEWISTOWN      CLOUDY    49  31  49 SW15      29.58F
N BAR RANCH      N/A     48  27  43 SW21      29.62F
CHINOOK          N/A     52  27  37 S3        29.56R
DENTON         LGT RAIN  47  37  67 W18G25    29.56R
FORT BENTON      N/A     45  39  81 MISG      29.59R
GEYSER         MOCLDY    49  32  51 W17       29.58R
GRASS RANGE    MOCLDY    49  32  53 SE5       29.56F
JUDITH GAP       N/A     41  32  71 SW9       29.61F
ROY            LGT RAIN  47  37  70 MISG      29.58F
STANFORD         N/A     49  31  50 W20G29    29.59R
WINIFRED       LGT RAIN  45  37  73 W13       29.59R
$$

MTZ017>020-022>027-061-062-210100-
NORTHEAST MONTANA

CITY           SKY/WX    TMP DP  RH WIND       PRES   REMARKS
GLASGOW        CLEAR     48  32  53 MISG      29.60F
JORDAN           N/A     54  29  38 S10       29.61F
SIDNEY         CLEAR     53  25  33 W3        29.67R
WOLF POINT     PTCLDY    47  29  49 E3        29.64F
PLENTYWOOD       N/A     46  27  46 SW7       29.66S
POPLAR           N/A     43  30  61 E6        29.66F
SCOBEY           N/A     44  23  43 SW2       29.66
$$

MTZ028>42-056>058-210100-
SOUTHCENTRAL AND SOUTHEAST MONTANA

CITY           SKY/WX    TMP DP  RH WIND       PRES   REMARKS
BAKER          CLEAR     51  25  36 S7        29.72S
BILLINGS       MOCLDY    54  27  35 SW20G28   29.62F
LIVINGSTON     CLOUDY    50  29  44 SW35G54   29.61R
MILES CITY     CLEAR     51  28  41 S7        29.65F
BIG TIMBER     PTCLDY    50  28  43 VRB5G13   29.66R
FORSYTH          N/A     55  28  35 S6        29.63F
HARLOWTON      MOCLDY    45  33  65 N3        29.62F
LAUREL           N/A     53  26  35 S10       29.65F
$$

REGIONAL REPORTS...DAKOTAS

CITY           SKY/WX    TMP DP  RH WIND       PRES   REMARKS
WILLISTON      CLEAR     47  29  49 CALM      29.68S
MINOT          CLEAR     44  35  70 SW12      29.68R
DICKINSON      CLEAR     45  26  47 SW7       29.70R
BEACH            N/A    N/A N/A N/A MISG        N/A
CROSBY           N/A     39  34  81 SW8       29.68F
TIOGA            N/A     39  37  93 W7        29.69F
WATFORD CITY     N/A     41  28  60 SE5       29.70R
BISMARCK       CLEAR     50  34  54 W3        29.74F
GRAND FORKS    CLOUDY    36  31  82 W3        29.67R
FARGO          CLOUDY    38  36  92 W12       29.71R WCI  30
BUFFALO SD       N/A     54  25  32 S9        29.68S
RAPID CITY     CLEAR     61  19  19 SW8       29.79F
$$

REGIONAL REPORTS...WYOMING/IDAHO/WASHINGTON

CITY           SKY/WX    TMP DP  RH WIND       PRES   REMARKS
GILLETTE       PTCLDY    57  23  26 SW24G30   29.75S
SHERIDAN       CLOUDY    57  23  26 SW15G26   29.70R
BUFFALO WY     CLOUDY    55  22  27 S12G18    29.77R
CODY           CLOUDY    47  30  51 SW16G22   29.78F
YELLOWSTONE LA   N/A     31  30  96 VRB5      29.85R
IDAHO FALLS    LGT RAIN  41  36  82 S24G36    29.89R
SALMON         CLOUDY    45  36  70 SW14G21   29.72R
BOISE          CLOUDY    52  41  66 NW5       29.80R
SPOKANE        LGT RAIN  41  37  86 SW20G29   29.52R FOG
$$

REGIONAL REPORTS...ALBERTA

CITY           SKY/WX    TMP DP  RH WIND       PRES   REMARKS
EDMONTON       CLOUDY    32  27  80 NE3       29.59S
CALGARY        PTCLDY    32  25  74 SE2       29.51R
LETHBRIDGE     MOCLDY    45  30  57 S3        29.50S
MEDICINE HAT   CLOUDY    46  27  46 SW3       29.55R
WATERTON GATE    N/A     37  28  70 SW13G20     N/A  WCI  29
CARDSTON         N/A     43  30  61 S3          N/A
MILK RIVER       N/A     45  30  57 S8          N/A
$$

REGIONAL REPORTS...SASKATCHEWAN

CITY           SKY/WX    TMP DP  RH WIND       PRES   REMARKS
SWIFT CURRENT  MOCLDY    41  27  56 NE3       29.59R
REGINA         PTCLDY    39  34  81 CALM      29.64R
SASKATOON      MOCLDY    36  30  80 SW6       29.63S WCI  31
CYPRESS HILLS    N/A     36  25  64 S6          N/A  WCI  31
VAL MARIE        N/A     45  25  45 SE8         N/A
ROCKGLEN         N/A     41  25  52 SW6         N/A
ASSINIBOIA       N/A     34  28  80 N3          N/A
$$




USA.gov is the U.S. government's official web portal to all federal, state and local government web resources and services.